User: anonymous   Login
Location: Slidell
(30.2789°N, 89.7378°W)
Time: 08:53:53
(UTC-05:00)
Language:

Cosmos 2360 Rocket - Orbit

View from above orbital plane
View from above orbital plane
View from above satellite
View from above satellite

Ground track
Ground track

The orbit data is extracted from the following two-line orbital elements,

1 25407U 98045B   17173.73268776 -.00000227 +00000-0 -91416-4 0  9997
2 25407 071.0102 029.7804 0008813 211.8887 148.1703 14.15760125976969
Epoch (UTC): 22 June 2017 17:35:04
Eccentricity: 0.0008813
inclination: 71.0102°
perigee height: 833 km
apogee height: 846 km
right ascension of ascending node: 29.7804°
argument of perigee: 211.8887°
revolutions per day: 14.15760125
mean anomaly at epoch: 148.1703°
orbit number at epoch: 97696

The dashed part of the orbit path shows where the satellite is in the earth's shadow,  

DLR